{"data":{"norad_id":52688,"intl_designator":"2022-053AJ","name":"STARLINK-4032","alt_names":[],"object_type":"PAYLOAD","status":"ACTIVE","operator":null,"country":"US","launch_date":"2022-05-18","launch_site_code":"AFETR","launch_vehicle":null,"mission":null,"orbit_class":"UNKNOWN","rcs_meters":null,"size_class":null,"mass_kg":null,"dimensions":null,"purposes":["comms"],"wikipedia_slug":null,"has_3d_model":false,"image_url":null,"decayed_at":null,"tle_current":{"epoch":"2026-05-25T00:43:24.053664Z","epoch_age_seconds":68834,"freshness":"FRESH","line1":"1 52688U 22053AJ  26145.03013951 -.00000481  00000+0 -12112-4 0  9996","line2":"2 52688  53.2130 161.2990 0001041  95.7249 264.3862 15.08837985222646","mean_motion":15.08837985,"eccentricity":0.0001041,"inclination_deg":53.213,"raan_deg":161.299,"arg_perigee_deg":95.7249,"mean_anomaly_deg":264.3862,"bstar":-1.2112e-5,"rev_number":22264,"period_min":95.437682131259,"perigee_km":539.0293960302,"apogee_km":540.46970000949,"semimajor_km":6917.8865480198,"source":"CELESTRAK","updated_at":"2026-05-25T13:38:17.235965Z"}}}